[[{"header":{"parameterUnit":"m.s-1","parameterCategory":1,"la1":30.2991,"la2":30.254,"lo1":-89.0895,"lo2":-89.0444,"dy":0.0017,"dx":0.0017,"nx":28,"ny":28,"refTime":"2024-05-28T09:00:00:Z","depth":0,"parameterNumber":2,"parameterNumberName":"U-component_of_WINDS"},"data":[0,0,0,0,0,0,0,0,0,0,0,0,0,0,0,0,0,0,0,0,0,0,0,0,0,0,0,0,0,0,0,0,0,0,0,0,0,0,0,0,0,0,0,0,0,0,0,0,0,0,0,0,0,0,0,0,0,0,-0.4236,-0.4235,0,-0.4176,-0.4175,-0.4174,-0.4162,-0.4163,-0.4163,-0.4163,-0.4103,-0.4101,-0.4099,0,0,0,0,0,0,0,0,0,0,0,0,0,-0.4343,-0.4341,-0.4236,-0.4235,-0.4234,-0.4176,-0.4175,-0.4174,-0.4162,-0.4163,-0.4163,-0.4164,-0.4104,-0.4101,-0.4099,0,0,0,0,0,0,0,0,0,0,0,0,0,-0.4291,-0.4341,-0.4236,-0.4221,-0.4219,-0.4176,-0.4175,-0.4174,-0.4162,-0.4163,-0.4163,-0.4164,-0.4104,-0.4101,-0.4098,-0.4066,0,0,-0.4089,-0.4088,0,0,0,0,0,0,0,0,-0.4294,-0.4287,-0.4224,-0.4222,-0.422,-0.4177,-0.419,-0.4138,-0.4162,-0.4184,-0.4163,-0.4164,-0.4127,-0.4122,-0.4109,-0.4063,-0.406,-0.4089,-0.4087,-0.4086,-0.4085,0,0,0,0,0,0,0,-0.4298,-0.429,-0.4212,-0.4223,-0.4221,-0.4219,-0.4212,-0.418,-0.4152,-0.4182,-0.4181,-0.4174,-0.4126,-0.4112,-0.4108,-0.4059,-0.4089,-0.4086,-0.4084,-0.4083,-0.3984,-0.3983,0,0,0,0,0,0,-0.4304,-0.4293,-0.4214,-0.421,-0.4259,-0.4216,-0.4209,-0.419,-0.4153,-0.4148,-0.4173,-0.4173,-0.4117,-0.4112,-0.4106,-0.4065,-0.4086,-0.4083,-0.4081,-0.3985,-0.3984,-0.3983,0,0,0,0,0,0,-0.4306,-0.4297,-0.4216,-0.4251,-0.4241,-0.4213,-0.4193,-0.4189,-0.4175,-0.4146,-0.4141,-0.4164,-0.4118,-0.411,-0.4076,-0.4063,-0.4081,-0.4079,-0.3986,-0.3985,-0.3984,-0.3984,0,0,0,0,0,0,-0.4309,-0.4298,-0.4284,-0.4251,-0.4239,-0.4187,-0.4192,-0.4187,-0.4169,-0.4169,-0.4136,-0.4132,-0.4118,-0.4081,-0.4073,-0.4059,-0.4076,-0.3987,-0.3985,-0.3984,-0.3985,-0.3983,-0.3982,0,0,0,0,0,-0.4313,-0.4287,-0.4284,-0.4274,-0.4222,-0.4186,-0.4179,-0.4163,-0.4168,-0.4155,-0.4137,-0.4133,-0.4066,-0.4077,-0.4068,-0.4054,-0.3988,-0.3986,-0.3984,-0.3986,-0.3984,-0.3982,0,0,0,0,0,0,-0.432,-0.4282,-0.4278,-0.4241,-0.4217,-0.4184,-0.4167,-0.4161,-0.4136,-0.4136,-0.4118,-0.4111,-0.4078,-0.4062,-0.4076,-0.4021,-0.4027,-0.4024,-0.4032,-0.4029,-0.4027,-0.4032,-0.4074,0,0,0,0,0,-0.4317,-0.4291,-0.426,-0.4229,-0.4218,-0.4194,-0.4178,-0.4168,-0.4143,-0.4133,-0.4112,-0.4088,-0.4062,-0.4045,-0.4019,-0.3983,-0.3977,-0.3969,-0.3967,-0.3966,-0.3963,-0.3944,-0.394,-0.3977,-0.3977,-0.3977,0,0,-0.4311,-0.4287,-0.4271,-0.423,-0.421,-0.4184,-0.4186,-0.4158,-0.4139,-0.4129,-0.4095,-0.4079,-0.4051,-0.4017,-0.4,-0.4003,-0.3951,-0.3964,-0.3963,-0.396,-0.3942,-0.3938,-0.3935,-0.3976,-0.3976,-0.3977,0,0,-0.4286,-0.4265,-0.4238,-0.4218,-0.4188,-0.4173,-0.4167,-0.4135,-0.4124,-0.409,-0.4082,-0.406,-0.4015,-0.3995,-0.398,-0.3949,-0.3944,-0.3941,-0.3931,-0.3913,-0.391,-0.3907,-0.3897,-0.3893,-0.3938,-0.3938,-0.3938,0,-0.4282,-0.4242,-0.4225,-0.4197,-0.418,-0.4169,-0.4142,-0.4124,-0.4088,-0.4076,-0.4079,-0.4023,-0.4004,-0.3965,-0.3957,-0.3945,-0.3938,-0.3944,-0.3912,-0.3909,-0.3906,-0.3896,-0.3892,-0.3938,-0.3938,-0.3938,-0.3938,0,-0.4239,-0.4211,-0.4193,-0.4157,-0.4138,-0.4111,-0.4091,-0.4073,-0.4065,-0.405,-0.4016,-0.3993,-0.3962,-0.3952,-0.3944,-0.3912,-0.3915,-0.3915,-0.3921,-0.3903,-0.3893,-0.3889,-0.3938,-0.3938,-0.3938,-0.3938,0,0,-0.4216,-0.4172,-0.4165,-0.4149,-0.4116,-0.4095,-0.4068,-0.4038,-0.4023,-0.3999,-0.3976,-0.3939,-0.3939,-0.3922,-0.3911,-0.3895,-0.3873,-0.3898,-0.3897,-0.3894,-0.3837,-0.3837,-0.3833,-0.387,-0.3869,-0.3869,-0.384,0,-0.4187,-0.4137,-0.4122,-0.4081,-0.4056,-0.4046,-0.4023,-0.4,-0.3986,-0.3963,-0.3947,-0.3921,-0.3923,-0.3913,-0.3896,-0.3879,-0.3862,-0.3881,-0.3849,-0.3848,-0.3856,-0.3828,-0.3827,-0.3801,-0.3836,-0.3835,-0.3835,0,-0.4147,-0.4121,-0.4077,-0.4048,-0.4037,-0.4016,-0.3987,-0.3965,-0.394,-0.3931,-0.3912,-0.3903,-0.3876,-0.3884,-0.3846,-0.386,-0.3846,-0.3836,-0.3835,-0.3831,-0.384,-0.3823,-0.3792,-0.3789,-0.3828,-0.3829,-0.3829,0,-0.4135,-0.4089,-0.4057,-0.4044,-0.4009,-0.3995,-0.3979,-0.3955,-0.3938,-0.3914,-0.3903,-0.3876,-0.3861,-0.3841,-0.3826,-0.3833,-0.379,-0.3796,-0.3782,-0.3782,-0.3773,-0.3773,-0.3739,-0.3764,-0.3764,-0.3764,-0.3764,0,-0.4104,-0.4078,-0.4052,-0.4032,-0.4003,-0.3986,-0.3958,-0.3942,-0.3921,-0.3899,-0.3889,-0.3869,-0.385,-0.3828,-0.3816,-0.3787,-0.378,-0.3772,-0.3769,-0.3773,-0.3774,-0.3764,-0.3765,-0.3763,-0.3763,-0.3764,-0.3764,0,-0.4086,-0.4067,-0.4031,-0.4001,-0.3993,-0.3973,-0.3947,-0.3928,-0.3914,-0.3886,-0.3879,-0.3856,-0.383,-0.3813,-0.3778,-0.377,-0.3739,-0.3736,-0.3747,-0.3746,-0.3732,-0.3734,-0.369,-0.3683,-0.3713,-0.3712,-0.3712,0,-0.4067,-0.4047,-0.4014,-0.3998,-0.3983,-0.3958,-0.3941,-0.3924,-0.3907,-0.3877,-0.3862,-0.3834,-0.3811,-0.3769,-0.375,-0.3724,-0.3722,-0.3708,-0.3718,-0.3722,-0.3722,-0.3723,-0.3721,-0.3706,-0.3706,-0.3706,-0.3706,0,-0.4037,-0.4029,-0.4004,-0.3976,-0.3956,-0.3933,-0.3911,-0.3899,-0.3878,-0.3859,-0.3832,-0.3814,-0.3779,-0.3752,-0.3725,-0.371,-0.3705,-0.3703,-0.3698,-0.3702,-0.3709,-0.3705,-0.3743,-0.3704,-0.3704,-0.3704,-0.3704,-0.3704,-0.4018,-0.3999,-0.3974,-0.3947,-0.3928,-0.3907,-0.3888,-0.3872,-0.3848,-0.3818,-0.381,-0.3781,-0.3757,-0.372,-0.3705,-0.3683,-0.3685,-0.3678,-0.3676,-0.3675,-0.3675,-0.3712,-0.3678,-0.3678,-0.3678,-0.3678,-0.3678,0,-0.3987,-0.397,-0.3946,-0.3914,-0.3893,-0.389,-0.3865,-0.3848,-0.3822,-0.3801,-0.3778,-0.3747,-0.3721,-0.37,-0.3674,-0.366,-0.3657,-0.3654,-0.3655,-0.3652,-0.3674,-0.3681,-0.3657,-0.3657,-0.3657,-0.3657,-0.3657,-0.3657,-0.3969,-0.3937,-0.3927,-0.3886,-0.387,-0.3841,-0.3827,-0.3809,-0.3791,-0.3756,-0.3735,-0.3721,-0.37,-0.3673,-0.3649,-0.3644,-0.3635,-0.3632,-0.3626,-0.3648,-0.365,-0.3652,-0.3658,-0.363,-0.363,-0.3605,-0.3605,-0.3605]},{"header":{"parameterUnit":"m.s-1","parameterCategory":1,"la1":30.2991,"la2":30.254,"lo1":-89.0895,"lo2":-89.0444,"dy":0.0017,"dx":0.0017,"nx":28,"ny":28,"refTime":"2024-05-28T09:00:00:Z","depth":0,"parameterNumber":3,"parameterNumberName":"V-component_of_WINDS"},"data":[0,0,0,0,0,0,0,0,0,0,0,0,0,0,0,0,0,0,0,0,0,0,0,0,0,0,0,0,0,0,0,0,0,0,0,0,0,0,0,0,0,0,0,0,0,0,0,0,0,0,0,0,0,0,0,0,0,0,3.813,3.813,0,3.8104,3.8104,3.8104,3.8089,3.8089,3.8089,3.8089,3.8059,3.8058,3.8057,0,0,0,0,0,0,0,0,0,0,0,0,0,3.8164,3.8163,3.813,3.813,3.8129,3.8104,3.8104,3.8104,3.8089,3.8089,3.8089,3.8089,3.8059,3.8058,3.8057,0,0,0,0,0,0,0,0,0,0,0,0,0,3.8145,3.8163,3.813,3.8119,3.8118,3.8104,3.8104,3.8103,3.8089,3.8089,3.8089,3.8089,3.8059,3.8058,3.8057,3.8051,0,0,3.8053,3.8053,0,0,0,0,0,0,0,0,3.8146,3.8143,3.8121,3.812,3.8119,3.81,3.8105,3.8086,3.8089,3.81,3.8089,3.8089,3.8072,3.807,3.8065,3.8049,3.8048,3.8053,3.8053,3.8052,3.8052,0,0,0,0,0,0,0,3.8147,3.8144,3.812,3.8121,3.8119,3.8115,3.8112,3.8101,3.8087,3.8099,3.8098,3.8095,3.8071,3.8066,3.8064,3.8048,3.8053,3.8052,3.8052,3.8051,3.8026,3.8026,0,0,0,0,0,0,3.8151,3.8146,3.8121,3.8119,3.8132,3.8114,3.8111,3.8106,3.8087,3.8084,3.8095,3.8095,3.8068,3.8066,3.8063,3.8055,3.8052,3.8051,3.805,3.8026,3.8026,3.8026,0,0,0,0,0,0,3.8151,3.8149,3.8122,3.8132,3.8128,3.8114,3.8108,3.8105,3.81,3.8084,3.8081,3.8093,3.8068,3.8065,3.8054,3.8054,3.805,3.8049,3.8026,3.8026,3.8026,3.8039,0,0,0,0,0,0,3.8152,3.8149,3.8147,3.8132,3.8128,3.8114,3.8108,3.8105,3.8099,3.8098,3.8081,3.8078,3.8068,3.8056,3.8053,3.8052,3.8048,3.8026,3.8026,3.8026,3.8038,3.8039,3.804,0,0,0,0,0,3.8154,3.8151,3.8147,3.8144,3.8126,3.8114,3.8112,3.8101,3.8099,3.8097,3.8086,3.8079,3.8054,3.8055,3.8052,3.805,3.8026,3.8026,3.8026,3.8038,3.8039,3.804,0,0,0,0,0,0,3.8165,3.8149,3.8144,3.8137,3.8127,3.8112,3.8109,3.8103,3.8092,3.8092,3.8078,3.8074,3.8065,3.8056,3.8058,3.8044,3.8039,3.8039,3.805,3.805,3.8051,3.8053,3.8048,0,0,0,0,0,3.8167,3.816,3.8146,3.8141,3.8136,3.8123,3.8118,3.8111,3.81,3.8095,3.8084,3.8073,3.8062,3.8056,3.8046,3.8037,3.8033,3.8034,3.8035,3.8036,3.8035,3.803,3.8031,3.8026,3.8026,3.8026,0,0,3.817,3.816,3.8157,3.8143,3.8134,3.8127,3.812,3.8112,3.8106,3.8094,3.8084,3.8075,3.8061,3.8052,3.8047,3.8044,3.8036,3.8036,3.8037,3.8036,3.803,3.8031,3.8031,3.8026,3.8026,3.8026,0,0,3.8172,3.8164,3.8159,3.8152,3.814,3.8131,3.813,3.8116,3.811,3.81,3.8091,3.8083,3.8066,3.8056,3.8049,3.8049,3.8041,3.8046,3.805,3.8045,3.8046,3.8046,3.8046,3.8046,3.8045,3.8045,3.8045,0,3.8177,3.8167,3.8157,3.815,3.8144,3.8134,3.8128,3.8121,3.8106,3.8101,3.8099,3.8078,3.8067,3.8056,3.8056,3.8051,3.8048,3.8047,3.8047,3.8047,3.8047,3.8046,3.8046,3.8046,3.8046,3.8046,3.8046,0,3.8174,3.8167,3.8164,3.8151,3.8145,3.8138,3.8127,3.8121,3.8115,3.8107,3.8096,3.8084,3.8071,3.8068,3.8061,3.8056,3.8054,3.805,3.8045,3.8048,3.8048,3.8047,3.8047,3.8047,3.8046,3.8046,0,0,3.8182,3.8165,3.8164,3.8158,3.8144,3.8138,3.8131,3.812,3.8116,3.8105,3.8099,3.8085,3.8081,3.8073,3.8065,3.8061,3.8061,3.8056,3.8056,3.8058,3.8054,3.8058,3.8058,3.8056,3.8056,3.8056,3.8056,0,3.8182,3.8171,3.8162,3.8153,3.8147,3.8137,3.8131,3.8121,3.8113,3.8106,3.8096,3.8087,3.8082,3.8077,3.8073,3.8062,3.806,3.8062,3.8049,3.8049,3.8053,3.8058,3.8062,3.8062,3.8055,3.8055,3.8055,0,3.8181,3.8173,3.8164,3.8152,3.8148,3.8143,3.8133,3.8126,3.8114,3.8109,3.8101,3.8093,3.8084,3.8081,3.8068,3.807,3.8064,3.8058,3.8058,3.8056,3.8052,3.8056,3.8062,3.8062,3.8055,3.8055,3.8055,0,3.8188,3.8174,3.8168,3.8163,3.8148,3.8145,3.8138,3.8127,3.8121,3.8112,3.8108,3.8097,3.809,3.8082,3.807,3.8069,3.8059,3.8055,3.8054,3.8054,3.8052,3.8052,3.8056,3.8048,3.8048,3.8048,3.8048,0,3.8189,3.8184,3.8171,3.8166,3.816,3.815,3.8144,3.8136,3.8127,3.812,3.8111,3.8105,3.809,3.8082,3.8073,3.8064,3.8061,3.8056,3.8054,3.8057,3.8058,3.8053,3.8053,3.8048,3.8048,3.8048,3.8048,0,3.8196,3.8187,3.8179,3.8166,3.8163,3.8159,3.8147,3.8142,3.8134,3.8126,3.8123,3.811,3.81,3.8089,3.8074,3.8068,3.806,3.8056,3.8064,3.8063,3.8063,3.8063,3.8064,3.8064,3.8056,3.8056,3.8056,0,3.8197,3.8193,3.8181,3.8176,3.817,3.8163,3.8158,3.8147,3.8141,3.8129,3.8125,3.8115,3.8106,3.809,3.8079,3.8068,3.8064,3.8065,3.8062,3.8066,3.8064,3.8064,3.8064,3.8066,3.8066,3.8066,3.8066,0,3.8201,3.8197,3.8189,3.8181,3.8175,3.8167,3.8159,3.8155,3.8143,3.8137,3.8128,3.8121,3.8107,3.8097,3.8084,3.8076,3.8069,3.8067,3.8066,3.807,3.8075,3.8072,3.8066,3.8067,3.8067,3.8067,3.8067,3.8067,3.8204,3.8201,3.8192,3.8184,3.8177,3.817,3.8165,3.8157,3.8149,3.8138,3.8132,3.8123,3.8111,3.8095,3.8087,3.8079,3.8076,3.8075,3.8075,3.8074,3.8076,3.8076,3.8076,3.8076,3.8076,3.8076,3.8076,0,3.8208,3.8201,3.8195,3.8184,3.8178,3.8173,3.8164,3.8159,3.8151,3.8142,3.8134,3.8123,3.8113,3.8102,3.8091,3.8086,3.8083,3.8084,3.8084,3.8082,3.8078,3.808,3.8087,3.8087,3.8087,3.8087,3.8087,3.8087,3.8208,3.8202,3.8197,3.8187,3.8181,3.8172,3.8168,3.8161,3.8154,3.8142,3.8135,3.8127,3.8117,3.8105,3.8096,3.8092,3.8089,3.8091,3.8087,3.8083,3.8082,3.8081,3.8083,3.809,3.809,3.8091,3.8091,3.8091]}]]